Regional Weather Roundup
Issued by NWS

Home | Current Version | Previous Version | Text Only | Print | Product List | Glossary On
Versions: 1 2 3 4 5 6 7 8 9 10 11 12 13 14 15 16 17 18 19 20 21 22 23 24 25 26 27 28 29 30 31 32 33 34 35 36 37 38 39 40 41 42 43 44 45 46 47 48 49 50
000
ASUS43 KBIS 310910
RWRND

NORTH DAKOTA REGIONAL WEATHER ROUNDUP
NATIONAL WEATHER SERVICE BISMARCK ND
400 AM CDT FRI OCT 31 2014

NOTE: "FAIR" INDICATES FEW OR NO CLOUDS BELOW 12,000 FEET WITH NO
SIGNIFICANT WEATHER AND/OR OBSTRUCTIONS TO VISIBILITY.


NDZ001>003-009>011-017-311000-
NORTHWEST NORTH DAKOTA

CITY           SKY/WX    TMP DP  RH WIND       PRES   REMARKS
WILLISTON      CLOUDY    29  23  78 S15G23    30.42F WCI  18
MINOT          PTCLDY    15  11  83 SE7       30.52F WCI   5
MINOT AFB      PTCLDY    17  16  95 SE8       30.52F WCI   6
$$

NDZ018>021-031>035-040>046-311000-
SOUTHWEST NORTH DAKOTA

CITY           SKY/WX    TMP DP  RH WIND       PRES   REMARKS
BISMARCK       PTCLDY    16  14  92 E7        30.58F WCI   6
DICKINSON      CLOUDY    29  24  82 SE22G29   30.42F WCI  15
GARRISON         N/A     24  21  88 SE7       30.52F WCI  16
HETTINGER ARPT CLOUDY    28  24  85 SE18G24   30.47F WCI  15
$$

NDZ004>008-012>016-024-026-027-054-311000-
NORTHEAST NORTH DAKOTA

CITY           SKY/WX    TMP DP  RH WIND       PRES   REMARKS
GRAND FORKS    CLEAR     15  11  83 N5        30.60F WCI   8
GRND FRKS AFB  CLEAR     15  13  92 NW5       30.60F WCI   7
DEVILS LAKE    PTCLDY    19  10  68 CALM      30.56S
$$

NDZ022-023-025-028>030-036>039-047>053-311000-
SOUTHEAST NORTH DAKOTA

CITY           SKY/WX    TMP DP  RH WIND       PRES   REMARKS
FARGO          CLEAR     17  13  84 N8        30.59F WCI   7
JAMESTOWN      PTCLDY    19  15  84 W3        30.59R
$$




USA.gov is the U.S. government's official web portal to all federal, state and local government web resources and services.